Location: Banios
(43.0451°N, 0.2335°E)
Time: 23:34:23
(UTC+00:00)

N. Korean satellite - Pass Details

Date: 01 December 2021
Orbit: 447 x 491 km, 97.3° (Epoch: 21 January)

Event Time Altitude Azimuth Distance (km) Brightness Sun altitude
Rises 04:43:19 0° 22° (NNE) 2,470 10.3 -26.3°
Reaches altitude 10° 04:45:32 10° 33° (NNE) 1,587 9.5 -25.9°
Maximum altitude 04:48:34 30° 97° (E) 835 8.3 -25.3°
Drops below altitude 10° 04:51:33 10° 160° (SSE) 1,568 9.4 -24.8°
Sets 04:53:44 0° 171° (S) 2,433 10.3 -24.4°
